Tracking 28790 objects as of 19-Apr-2024
HD Live streaming from Space Station
objects crossing your sky now

DELTA 1 R/B

Track DELTA 1 R/B now!
10-day predictions
DELTA 1 R/B is classified as:


NORAD ID: 20323
Int'l Code: 1989-089B
Perigee: 684.0 km
Apogee: 785.5 km
Inclination: 97.1 °
Period: 99.4 minutes
Semi major axis: 7105 km
RCS: 8.9124 m2 (large)
Launch date: November 18, 1989
Source: United States (US)
Launch site: AIR FORCE WESTERN TEST RANGE (AFWTR)

Note: This is a ROCKET BODY
Your satellite tracking list
Your tracking list is empty




NASA's NSSDC Master Catalog

Two Line Element Set (TLE):
1 20323U 89089B   24109.83482940  .00001257  00000-0  32718-3 0  9997
2 20323  97.1122  53.7607 0071466 138.1901 222.4787 14.49395379795758
Source of the keplerian elements: AFSPC